TimeMDT,TemperatureF,Dew PointF,Humidity,Sea Level PressureIn,VisibilityMPH,Wind Direction,Wind SpeedMPH,Gust SpeedMPH,PrecipitationIn,Events,Conditions,WindDirDegrees,DateUTC
12:35 AM,62.6,39.2,42,29.96,10.0,NW,10.4,-,N/A,,Overcast,310,2012-10-13 06:35:00
12:55 AM,62.6,39.2,42,29.97,3.0,NW,11.5,-,N/A,,Overcast,320,2012-10-13 06:55:00
1:15 AM,60.8,39.2,45,29.97,5.0,WNW,11.5,-,N/A,,Overcast,290,2012-10-13 07:15:00
1:35 AM,60.8,41.0,48,29.98,6.0,WNW,8.1,-,N/A,,Mostly Cloudy,290,2012-10-13 07:35:00
1:55 AM,60.8,42.8,52,29.99,6.0,NW,9.2,-,N/A,,Scattered Clouds,310,2012-10-13 07:55:00
2:15 AM,60.8,44.6,55,29.99,7.0,NW,12.7,17.3,N/A,,Partly Cloudy,320,2012-10-13 08:15:00
2:35 AM,60.8,44.6,55,30.01,4.0,NW,13.8,20.7,N/A,,Mostly Cloudy,320,2012-10-13 08:35:00
2:55 AM,60.8,44.6,55,30.02,3.0,NW,13.8,18.4,N/A,,Overcast,320,2012-10-13 08:55:00
3:15 AM,59.0,44.6,59,30.02,5.0,NNW,9.2,-,N/A,,Overcast,330,2012-10-13 09:15:00
3:35 AM,59.0,46.4,63,30.03,5.0,NNW,10.4,-,N/A,,Overcast,340,2012-10-13 09:35:00
4:35 AM,59.0,46.4,63,30.07,10.0,NNW,9.2,-,N/A,,Overcast,340,2012-10-13 10:35:00
4:55 AM,57.2,48.2,72,30.09,4.0,NW,9.2,-,N/A,,Overcast,320,2012-10-13 10:55:00
5:15 AM,57.2,50.0,77,30.10,8.0,WNW,8.1,-,0.01,,Overcast,300,2012-10-13 11:15:00
5:35 AM,55.4,50.0,82,30.11,9.0,WNW,6.9,-,0.01,,Overcast,290,2012-10-13 11:35:00
5:55 AM,55.4,50.0,82,30.12,10.0,NW,6.9,-,0.01,,Overcast,310,2012-10-13 11:55:00
6:15 AM,55.4,50.0,82,30.12,8.0,NW,6.9,-,0.01,,Overcast,320,2012-10-13 12:15:00
6:35 AM,55.4,51.8,88,30.12,10.0,WSW,4.6,-,0.01,,Overcast,240,2012-10-13 12:35:00
6:55 AM,55.4,51.8,88,30.13,10.0,NW,5.8,-,0.01,,Mostly Cloudy,320,2012-10-13 12:55:00
7:15 AM,55.4,50.0,82,30.14,10.0,NW,9.2,-,N/A,,Scattered Clouds,310,2012-10-13 13:15:00
7:55 AM,55.4,46.4,72,30.16,10.0,WNW,10.4,-,N/A,,Overcast,290,2012-10-13 13:55:00
8:55 AM,55.4,44.6,67,30.18,10.0,WNW,11.5,17.3,N/A,,Overcast,290,2012-10-13 14:55:00
9:15 AM,55.4,44.6,67,30.19,10.0,WNW,10.4,-,N/A,,Mostly Cloudy,290,2012-10-13 15:15:00
10:15 AM,57.2,44.6,63,30.22,10.0,NW,9.2,-,N/A,,Mostly Cloudy,310,2012-10-13 16:15:00
10:35 AM,59.0,44.6,59,30.23,10.0,NW,8.1,-,N/A,,Overcast,320,2012-10-13 16:35:00
10:55 AM,59.0,44.6,59,30.23,10.0,NW,8.1,-,N/A,,Overcast,320,2012-10-13 16:55:00
11:35 AM,62.6,44.6,52,30.24,10.0,WNW,13.8,-,N/A,,Partly Cloudy,300,2012-10-13 17:35:00
11:55 AM,62.6,44.6,52,30.24,10.0,WNW,10.4,-,N/A,,Clear,300,2012-10-13 17:55:00
12:15 PM,62.6,44.6,52,30.25,10.0,WNW,13.8,18.4,N/A,,Clear,300,2012-10-13 18:15:00
12:35 PM,62.6,44.6,52,30.25,10.0,NW,9.2,-,N/A,,Mostly Cloudy,310,2012-10-13 18:35:00
12:55 PM,64.4,44.6,49,30.25,10.0,NW,8.1,-,N/A,,Partly Cloudy,310,2012-10-13 18:55:00
1:15 PM,66.2,44.6,46,30.25,10.0,NW,11.5,-,N/A,,Scattered Clouds,310,2012-10-13 19:15:00
1:35 PM,64.4,42.8,45,30.25,10.0,WNW,12.7,19.6,N/A,,Mostly Cloudy,290,2012-10-13 19:35:00
2:15 PM,64.4,42.8,45,30.24,10.0,NNW,8.1,-,N/A,,Mostly Cloudy,330,2012-10-13 20:15:00
2:35 PM,66.2,42.8,43,30.23,10.0,North,9.2,-,N/A,,Mostly Cloudy,350,2012-10-13 20:35:00
2:55 PM,66.2,42.8,43,30.23,10.0,North,4.6,-,N/A,,Partly Cloudy,10,2012-10-13 20:55:00
3:15 PM,66.2,41.0,40,30.23,10.0,NW,4.6,-,N/A,,Partly Cloudy,320,2012-10-13 21:15:00
3:55 PM,68.0,41.0,37,30.22,10.0,North,5.8,-,N/A,,Clear,360,2012-10-13 21:55:00
4:35 PM,66.2,41.0,40,30.23,10.0,North,3.5,-,N/A,,Clear,360,2012-10-13 22:35:00
4:55 PM,66.2,41.0,40,30.22,10.0,North,4.6,-,N/A,,Clear,360,2012-10-13 22:55:00
5:15 PM,66.2,41.0,40,30.22,10.0,North,5.8,-,N/A,,Clear,360,2012-10-13 23:15:00
5:35 PM,66.2,41.0,40,30.22,10.0,Calm,Calm,-,N/A,,Clear,0,2012-10-13 23:35:00
5:55 PM,66.2,41.0,40,30.22,10.0,Calm,Calm,-,N/A,,Clear,0,2012-10-13 23:55:00
6:15 PM,66.2,41.0,40,30.22,10.0,NNE,3.5,-,N/A,,Clear,30,2012-10-14 00:15:00
6:35 PM,66.2,41.0,40,30.23,10.0,NE,4.6,-,N/A,,Clear,40,2012-10-14 00:35:00
7:15 PM,62.6,42.8,48,30.23,10.0,ENE,3.5,-,N/A,,Partly Cloudy,70,2012-10-14 01:15:00
8:35 PM,55.4,44.6,67,30.23,10.0,Calm,Calm,-,N/A,,Clear,0,2012-10-14 02:35:00
8:55 PM,53.6,44.6,72,30.23,10.0,Calm,Calm,-,N/A,,Clear,0,2012-10-14 02:55:00
9:15 PM,50.0,42.8,76,30.23,10.0,SE,4.6,-,N/A,,Clear,140,2012-10-14 03:15:00
9:55 PM,51.8,44.6,76,30.26,10.0,Calm,Calm,-,N/A,,Clear,0,2012-10-14 03:55:00
10:15 PM,48.2,42.8,82,30.27,10.0,ESE,3.5,-,N/A,,Clear,120,2012-10-14 04:15:00
10:35 PM,50.0,41.0,71,30.26,10.0,SE,3.5,-,N/A,,Clear,140,2012-10-14 04:35:00
11:15 PM,50.0,41.0,71,30.27,10.0,SE,3.5,-,N/A,,Clear,140,2012-10-14 05:15:00
11:35 PM,48.2,39.2,71,30.26,10.0,Calm,Calm,-,N/A,,Clear,0,2012-10-14 05:35:00
11:55 PM,46.4,39.2,76,30.26,10.0,SE,3.5,-,N/A,,Clear,140,2012-10-14 05:55:00